Ellsworth AFB, SD

1:44 PM MST on November 22, 2017 (GMT -0700)
Ellsworth Air Force Base

Weather History for KRCA - March, 2014

Change the Weather History Date:

Wednesday, March 19, 2014

  Actual Average Record
Temperature  
Mean Temperature 35 °F -  
Max Temperature 46 °F 44 °F 77 °F (2004)
Min Temperature 25 °F 24 °F 16 °F (2013)
Degree Days  
Heating Degree Days 30    
Moisture  
Dew Point 22 °F    
Average Humidity 58    
Maximum Humidity 82    
Minimum Humidity 37    
Precipitation  
Precipitation 0.00 in - - ()
Sea Level Pressure  
Sea Level Pressure 30.04 in    
Wind  
Wind Speed 9 mph (WNW)    
Max Wind Speed 22 mph    
Max Gust Speed 29 mph    
Visibility 10 miles    
Events      
Averages and records for this station are not official NWS values.
T = Trace of Precipitation, MM = Missing Value Source: NWS Daily Summary

Daily Weather History Graph

Daily Weather History Graph

Search for Another Location

Airport or City:

Trip Planner

Search our weather history database for the weather conditions in past years. The results will help you decide how hot, cold, wet, or windy it might be!

Date:

Astronomy

Mar. 19, 2014 Rise Set
Actual Time 6:57 AM MDT 7:03 PM MDT
Civil Twilight 6:28 AM MDT 7:32 PM MDT
Nautical Twilight 5:54 AM MDT 8:06 PM MDT
Astronomical Twilight 5:20 AM MDT 8:41 PM MDT
Moon 10:32 PM MDT (3/19) 8:17 AM MDT (3/19)
Length of Visible Light 13h 04m
Length of Day
12h 06m
Waning Gibbous, 91% of the Moon is Illuminated
Mar 19
Waning Gibbous
Mar 23
Last Quarter
Mar 30
New
Apr 7
First Quarter
Apr 15
Full

Hourly Weather History & Observations

Time (MDT) Temp. Windchill Dew Point Humidity Pressure Visibility Wind Dir Wind Speed Gust Speed Precip Events Conditions
12:58 AM 27.7 °F 20.4 °F 22.5 °F 81% 30.10 in 10.0 mi West 6.9 mph - N/A   Clear
1:58 AM 25.2 °F 17.3 °F 20.5 °F 82% 30.11 in 10.0 mi WNW 6.9 mph - N/A   Clear
2:58 AM 25.7 °F 19.0 °F 20.3 °F 80% 30.10 in 10.0 mi West 5.8 mph - N/A   Partly Cloudy
3:58 AM 26.2 °F 19.6 °F 19.8 °F 76% 30.09 in 10.0 mi WSW 5.8 mph - N/A   Clear
4:58 AM 25.0 °F 19.3 °F 18.9 °F 78% 30.08 in 10.0 mi SW 4.6 mph - N/A   Clear
5:58 AM 28.0 °F - 19.8 °F 71% 30.07 in 10.0 mi SW 2.3 mph - N/A   Clear
6:58 AM 28.0 °F 21.7 °F 20.1 °F 72% 30.09 in 10.0 mi WSW 5.8 mph - N/A   Partly Cloudy
7:58 AM 32.2 °F 24.4 °F 24.3 °F 73% 30.09 in 10.0 mi West 9.2 mph - N/A   Mostly Cloudy
8:58 AM 37.0 °F 29.8 °F 25.7 °F 64% 30.08 in 10.0 mi West 10.4 mph - N/A   Clear
9:58 AM 40.8 °F 33.3 °F 23.9 °F 51% 30.07 in 10.0 mi NW 13.8 mph - N/A   Clear
10:58 AM 41.5 °F 33.5 °F 22.5 °F 47% 30.07 in 10.0 mi NNW 16.1 mph - N/A   Clear
11:58 AM 43.7 °F 35.7 °F 21.2 °F 41% 30.07 in 10.0 mi NNW 18.4 mph - N/A   Clear
12:58 PM 43.9 °F 35.7 °F 21.7 °F 41% 30.07 in 10.0 mi North 19.6 mph - N/A   Clear
1:58 PM 44.6 °F 36.4 °F 21.4 °F 40% 30.06 in 10.0 mi North 20.7 mph 26.5 mph N/A   Clear
2:58 PM 44.8 °F 36.4 °F 21.4 °F 40% 30.03 in 10.0 mi North 21.9 mph 28.8 mph N/A   Clear
3:58 PM 45.9 °F 38.5 °F 22.3 °F 39% 30.01 in 10.0 mi North 18.4 mph - N/A   Clear
4:58 PM 45.9 °F 38.8 °F 21.0 °F 37% 30.00 in 10.0 mi North 17.3 mph - N/A   Clear
5:58 PM 44.6 °F 40.2 °F 21.6 °F 40% 30.01 in 10.0 mi NNW 8.1 mph - N/A   Clear
6:58 PM 42.1 °F - 22.8 °F 46% 30.00 in 10.0 mi Calm Calm - N/A   Clear
7:58 PM 39.0 °F 35.7 °F 23.2 °F 53% 29.99 in 10.0 mi ESE 4.6 mph - N/A   Scattered Clouds
8:58 PM 38.1 °F 35.7 °F 23.4 °F 55% 30.00 in 10.0 mi South 3.5 mph - N/A   Partly Cloudy
9:58 PM 35.6 °F 31.7 °F 23.0 °F 60% 29.97 in 10.0 mi SE 4.6 mph - N/A   Clear
10:58 PM 32.5 °F - 22.1 °F 65% 29.96 in 10.0 mi SW 2.3 mph - N/A   Partly Cloudy
11:58 PM 31.3 °F 24.7 °F 21.7 °F 68% 29.95 in 10.0 mi WSW 6.9 mph - N/A   Clear